Regional Weather Roundup
Issued by NWS

Home | Current Version | Previous Version | Graphics & Text | Print | Product List | Glossary On
Versions: 1 2 3 4 5 6 7 8 9 10 11 12 13 14 15 16 17 18 19 20 21 22 23 24 25 26 27 28 29 30 31 32 33 34 35 36 37 38 39 40 41 42 43 44 45 46 47 48 49 50
000
ASUS43 KOAX 221202
RWRNE

WEATHER ROUNDUP FOR NEBRASKA
NATIONAL WEATHER SERVICE OMAHA NE
600 AM CST SUN JAN 22 2017

NOTES: SATELLITE DATA IS BEING USED TO AUGMENT CLOUD COVER ABOVE
       12000 FEET.
       "FAIR" INDICATES FEW OR NO CLOUDS BELOW 12,000 FEET WITH NO
       SIGNIFICANT WEATHER AND/OR OBSTRUCTIONS TO VISIBILITY.

  * THESE STATIONS DO NOT REPORT WEATHER SUCH AS RAIN...SNOW OR FOG.

NEZ001>004-019>022-054>056-221300-
NEBRASKA PANHANDLE

CITY           SKY/WX    TMP DP  RH WIND       PRES   REMARKS
SCOTTSBLUFF    CLEAR     26  21  81 W10       29.80R WCI  16
6HR MIN TEMP:  23; 6HR MAX TEMP:  30;

ALLIANCE       CLEAR     19  16  88 W9        29.76R WCI   8
6HR MIN TEMP:  16; 6HR MAX TEMP:  25;

CHADRON        CLEAR     21  18  88 W8        29.79R WCI  11
6HR MIN TEMP:  18; 6HR MAX TEMP:  22;

SIDNEY         CLOUDY    28  21  75 NW12      29.77R WCI  18
6HR MIN TEMP:  27; 6HR MAX TEMP:  33;

$$

NEZ057>060-069>072-079>082-221300-
SOUTHWEST NEBRASKA

CITY           SKY/WX    TMP DP  RH WIND       PRES   REMARKS
NORTH PLATTE   CLEAR     24  22  91 NW5       29.74R WCI  18
6HR MIN TEMP:  21; 6HR MAX TEMP:  29;

IMPERIAL       CLOUDY    30  25  81 NW10      29.76R WCI  21
6HR MIN TEMP:  28; 6HR MAX TEMP:  31;

LEXINGTON      CLEAR     29  26  91 W8        29.73R WCI  21
MCCOOK         CLEAR     25  24  96 W9        29.75R WCI  15
6HR MIN TEMP:  25; 6HR MAX TEMP:  32;

OGALLALA       CLOUDY    31  27  85 W3        29.77R
$$

NEZ005>010-023>029-035>040-094-221300-
NORTH CENTRAL NEBRASKA

CITY           SKY/WX    TMP DP  RH WIND       PRES   REMARKS
VALENTINE      CLEAR     23  19  85 W6        29.74R WCI  16
6HR MIN TEMP:  22; 6HR MAX TEMP:  27;

AINSWORTH      CLOUDY    27  25  91 NW8       29.72R WCI  19
BROKEN BOW     CLEAR     32  27  81 N8        29.71R WCI  25
6HR MIN TEMP:  31; 6HR MAX TEMP:  34;

O`NEILL        CLEAR     27  25  94 NW9       29.71R WCI  17
ORD            CLOUDY    28  24  85 N6        29.70R WCI  22
6HR MIN TEMP:  26; 6HR MAX TEMP:  30;

THEDFORD       CLEAR     26  24  92 W7        29.74R WCI  18
$$

NEZ041-046>049-061>064-073>077-083>087-221300-
SOUTH CENTRAL NEBRASKA

CITY           SKY/WX    TMP DP  RH WIND       PRES   REMARKS
GRAND ISLAND   CLOUDY    27  26  96 NW8       29.71R WCI  19
6HR MIN TEMP:  27; 6HR MAX TEMP:  36;

AURORA         CLEAR     32  30  94 NW12      29.70R WCI  23
HASTINGS       CLEAR     32  28  85 NW9       29.71R WCI  24
6HR MIN TEMP:  31; 6HR MAX TEMP:  35;

HEBRON         CLEAR     33  31  91 N9        29.68R WCI  25
HOLDREGE       CLEAR     29  27  93 NW7       29.72R WCI  22
KEARNEY *      CLEAR    N/A N/A N/A MISG        N/A
YORK           CLEAR     32  32 100 NW10      29.69R WCI  24
$$

NEZ011>018-030>034-042>045-221300-
NORTHEAST NEBRASKA

CITY           SKY/WX    TMP DP  RH WIND       PRES   REMARKS
NORFOLK        CLOUDY    29  27  92 NW13      29.69R WCI  19
6HR MIN TEMP:  24; 6HR MAX TEMP:  29;

ALBION         PTCLDY    29  24  79 NW9       29.69R WCI  21
BLAIR          CLOUDY    32  30  93 N17       29.66S WCI  21
FREMONT        CLOUDY    32  32 100 NW13      29.70R WCI  22
TEKAMAH        CLOUDY    32  29  88 N13       29.69R WCI  22
6HR MIN TEMP:  30; 6HR MAX TEMP:  33;

WAYNE          CLOUDY    31  30  95 N16       29.69R WCI  20
$$

NEZ050>053-065>068-078-088>093-221300-
SOUTHEAST NEBRASKA

CITY           SKY/WX    TMP DP  RH WIND       PRES   REMARKS
LINCOLN        CLEAR     25  24  96 N6        29.69S WCI  18
6HR MIN TEMP:  23; 6HR MAX TEMP:  31;

OMAHA EPPLEY   CLOUDY    32  28  85 N13       29.68R WCI  22
6HR MIN TEMP:  29; 6HR MAX TEMP:  33;

BEATRICE       CLEAR     30  29  96 N7        29.66R WCI  24
FALLS CITY     CLOUDY    34  32  92 N7        29.65R WCI  28
6HR MIN TEMP:  33; 6HR MAX TEMP:  37;

NEBRASKA CITY  CLEAR     31  30  96 N7        29.66R FOG     WCI  25
PLATTSMOUTH    CLOUDY    31  28  90 NW17      29.65S FOG     WCI  20
$$

NEZ044-045-051>053-067-221300-
OMAHA AREA

CITY           SKY/WX    TMP DP  RH WIND       PRES   REMARKS
OMAHA EPPLEY   CLOUDY    32  28  85 N13       29.68R WCI  22
6HR MIN TEMP:  29; 6HR MAX TEMP:  33;

BLAIR          CLOUDY    32  30  93 N17       29.66S WCI  21
FREMONT        CLOUDY    32  32 100 NW13      29.70R WCI  22
MILLARD        CLOUDY    33  31  92 NW8       29.68S WCI  27
PLATTSMOUTH    CLOUDY    31  28  90 NW17      29.65S FOG     WCI  20
WAHOO          CLOUDY    31  29  94 N17       29.70R WCI  20
$$



USA.gov is the U.S. government's official web portal to all federal, state and local government web resources and services.